STARLINK-1312, 45398

Orbit data source: Space-Track

STARLINK-1312, 45398 is a payload satellite owned by SpaceX/Seattle (US) in LEO that was launched on Wed, 18 Mar 2020 UTC via an FALCON 9 launch vehicle from the Air Force Eastern Test Range (AFETR). Payloads include a variety of satellites, spacecraft, and rockets equipped with specific instruments for various scientific and technological missions. These include communications satellites like Starlink; space stations such as the ISS; scientific satellites like the Hubble; Earth observation satellites from companies like Planet Labs, Umbra, and HawkEye 360; GPS; miniature CubeSats for education and research; and military/defense satellites.

Loading next visibility...
STARLINK-1312 details
Identifier
45398, 2020-019AQ
Orbit
LEO
Last TLE update10 hours ago
Origin
Flag of USSpaceX/Seattle (US)
ManufacturerSpaceX/Seattle
MissionOperational Commercial Communications
Bus & MotorSTARLINK, Unknown motor
Mass260 kg wet, ~248 kg dry
Launch date (UTC)
2020-03-18 (5 years ago)
Launch vehicle
FALCON 9
Launch site
Air Force Eastern Test Range (AFETR)
Object type
Payload
Rocket body
Debris
Shape & HBRBox + 1 Pan, 8.86 m
Radar Cross Section13.562 m², Large (>1 m²)

Expand to show TLE details & history

TLE from 10 hours ago
0 STARLINK-1312
1 45398U 20019AQ  24336.93896751  .00010605  00000-0  73013-3 0  9996
2 45398  53.0544  63.9881 0001040  73.9858 286.1246 15.06379871260017
Epoch: 2024-12-01T22:32Z
Definitive object data (Epoch: 2024-12-01T22:32:06.792Z)
Latitude
Longitude14.68981°
Altitude547.952 km
Speed7.589 km/s
True Right ascension04h 15m 57s
True Declination0° 00' 00"
Sunlit
Object was in full shadow at TLE epoch
Visualization TLE readout
Latitude39.46635°
Longitude154.7852°
Altitude550.275 km
Speed7.592 km/s
Apparent Right ascension15h 53m 25s
Apparent Declination2° 09' 07"
Sunlit
Object is in daylight
Visualization observer readout
Local Sidereal Time06:25:26
Azimuth49.039° ENE
Elevation-35.441°
Doppler factor1
Orbital elements
Apogee altitude548.264 km
Perigee altitude546.824 km
Semi-major axis6,925.681 km
Eccentricity0.000104
Inclination53.0544°
RAAN63.9881°
Arg. of periapsis73.9858°
True anomaly286.11315°
Mean anomaly286.1246°
Eccentric anomaly286.11888°
Mean motion3.76573 °/min
BSTAR0.00073013
Orbital period95.6 mins
Loading maneuver chart data...
Loading historical data...
Loading historical data...
Loading historical data...
Loading historical data...
Loading historical data...
Loading historical data...
Loading historical data...

STARLINK-1312 Visibility forecast

Observer location: undefined°, undefined

Span
Click to sort rows by Start time (UTC) header in descending order
Start Az.
Max El. time (UTC)
Max El. Az.
Max El.
End time (UTC)
End Az.
7 mins2024-12-02 09:54:09.840Z267.104° W2024-12-02 09:57:09.840Z317.314° NNW27.964°2024-12-02 10:01:09.840Z35.025° NE
6 mins2024-12-02 14:57:09.840Z332.042° NNW2024-12-02 14:59:09.840Z22.355° NNE34.307°2024-12-02 15:03:09.840Z105.566° ESE
5 mins2024-12-02 16:37:09.840Z266.561° W2024-12-02 16:39:09.840Z219.284° SW24.201°2024-12-02 16:42:09.840Z171.921° S
6 mins2024-12-03 08:09:09.840Z206.766° SW2024-12-03 08:11:09.840Z165.695° S38.005°2024-12-03 08:15:09.840Z59.434° ENE
|